Total_Precipitation_Accumulation
0.97 0.88 0.88 1.02 0.97 0.97 1.07 1.15 1.02 0.93 0.93 0.90 0.85 0.80 0.75 0.69 0.67 0.58 0.63 0.66 0.75 0.95 1.27 1.31 1.13 0.87 0.88 1.13 1.15 1.11 1.08 1.13 1.35 1.41 1.38 1.38 1.36 1.34 1.11 0.86 0.66 0.48 0.41
1.02 1.03 0.92 1.00 1.13 1.15 1.11 1.09 1.06 0.96 0.91 0.93 0.90 0.90 0.87 0.71 0.70 0.69 0.69 0.67 0.59 0.63 0.98 1.31 1.27 1.09 1.10 1.24 1.21 1.17 1.09 1.07 1.24 1.35 1.37 1.31 1.41 1.42 1.08 0.78 0.65 0.51 0.46
1.03 1.04 0.92 0.95 1.08 1.25 1.21 1.13 1.05 1.01 0.86 0.81 0.89 0.93 0.93 0.81 0.76 0.82 0.74 0.74 0.60 0.57 0.77 1.20 1.43 1.30 1.30 1.50 1.33 1.18 1.09 1.05 1.09 1.21 1.34 1.29 1.28 1.26 0.98 0.75 0.65 0.58 0.51
1.04 1.12 1.03 0.98 1.13 1.30 1.44 1.46 1.27 1.17 1.02 0.92 0.96 0.94 0.89 0.91 0.87 0.81 0.79 0.83 0.77 0.66 0.70 0.87 1.20 1.47 1.52 1.65 1.45 1.25 1.06 0.92 0.90 1.00 1.11 1.12 1.05 1.01 0.88 0.78 0.72 0.68 0.63
0.96 1.17 1.24 1.19 1.22 1.37 1.41 1.43 1.40 1.22 1.16 1.11 0.99 0.93 0.85 0.87 0.91 0.76 0.78 0.83 0.87 0.78 0.78 0.65 0.72 0.92 1.22 1.63 1.68 1.39 1.16 0.95 0.84 0.86 0.92 0.89 0.85 0.82 0.79 0.74 0.71 0.67 0.68
1.18 1.34 1.42 1.40 1.40 1.45 1.41 1.51 1.65 1.41 1.23 1.25 1.15 1.00 0.89 0.84 0.84 0.79 0.82 0.83 0.89 0.88 0.84 0.70 0.63 0.50 0.68 1.12 1.45 1.38 1.30 1.16 0.94 0.86 0.89 0.81 0.70 0.69 0.70 0.64 0.63 0.59 0.59
1.40 1.54 1.63 1.65 1.58 1.48 1.51 1.67 1.99 1.86 1.49 1.33 1.36 1.23 1.02 0.89 0.91 0.81 0.82 0.91 0.90 0.92 0.99 0.92 0.75 0.66 0.56 0.57 0.74 1.04 1.20 1.32 1.20 1.05 0.97 0.90 0.71 0.63 0.59 0.54 0.54 0.53 0.53
1.49 1.57 1.78 1.88 1.81 1.76 1.84 1.84 2.03 2.15 1.91 1.68 1.62 1.77 1.54 1.28 0.93 0.73 0.77 0.84 0.92 1.00 0.98 1.03 0.95 0.83 0.77 0.69 0.46 0.56 0.79 1.06 1.29 1.20 1.10 1.05 0.84 0.65 0.57 0.52 0.49 0.50 0.48
1.70 1.66 1.77 1.97 1.93 1.88 1.87 2.03 2.26 2.49 2.44 2.22 1.97 2.03 1.77 1.56 1.41 0.92 0.71 0.79 0.89 1.00 1.01 1.11 1.12 1.01 0.96 0.98 0.76 0.47 0.42 0.60 1.04 1.24 1.23 1.10 0.95 0.78 0.69 0.57 0.53 0.51 0.47
1.62 1.61 1.72 1.93 2.06 2.13 2.16 2.22 2.22 2.47 2.66 2.50 2.41 2.11 1.81 1.67 1.73 1.48 1.01 0.78 0.82 0.89 0.93 0.98 1.08 1.14 1.13 1.11 1.00 0.62 0.41 0.37 0.74 1.22 1.41 1.27 1.05 0.88 0.80 0.71 0.61 0.60 0.55
1.70 1.61 1.66 1.73 1.78 1.85 1.96 2.10 2.17 2.36 2.47 2.58 2.56 2.39 2.15 1.97 1.55 1.50 1.49 1.22 0.98 0.79 0.80 0.93 1.08 1.18 1.19 1.15 1.17 0.83 0.57 0.39 0.47 0.89 1.34 1.56 1.37 1.13 0.98 0.85 0.72 0.64 0.57
1.67 1.58 1.53 1.64 1.66 1.66 1.78 1.90 1.99 2.20 2.34 2.45 2.51 2.39 2.22 2.15 1.91 1.64 1.49 1.45 1.33 1.02 0.84 0.85 0.95 1.06 1.15 1.16 1.09 1.04 0.79 0.53 0.43 0.60 0.91 1.29 1.43 1.36 1.20 1.08 0.97 0.83 0.75
1.31 1.30 1.24 1.30 1.43 1.48 1.66 1.73 1.67 1.72 1.88 2.07 2.23 2.25 2.20 2.08 2.08 1.98 1.81 1.65 1.45 1.12 0.97 0.84 0.79 0.94 1.04 1.18 1.20 1.27 0.91 0.67 0.52 0.51 0.60 0.75 0.95 1.14 1.25 1.27 1.32 1.31 1.22
1.01 0.97 0.97 0.98 1.04 1.13 1.34 1.55 1.53 1.55 1.61 1.68 1.78 2.02 2.10 2.03 2.05 1.91 1.77 1.75 1.55 1.29 1.10 0.86 0.73 0.74 0.85 1.02 1.35 1.45 0.95 0.80 0.65 0.59 0.60 0.59 0.60 0.69 0.93 1.12 1.26 1.42 1.48
0.78 0.76 0.78 0.86 0.92 0.91 1.02 1.15 1.33 1.41 1.46 1.53 1.57 1.72 1.79 1.83 1.80 1.70 1.70 1.68 1.58 1.36 1.19 1.03 0.92 0.83 0.84 0.92 1.23 1.16 1.00 0.94 0.83 0.73 0.67 0.63 0.60 0.56 0.62 0.73 0.86 1.02 1.13
0.71 0.70 0.67 0.68 0.74 0.77 0.87 0.97 1.03 1.13 1.21 1.37 1.53 1.65 1.65 1.67 1.70 1.64 1.60 1.66 1.61 1.42 1.22 1.06 0.95 0.89 0.99 0.98 1.16 1.03 1.11 1.19 0.92 0.78 0.71 0.70 0.64 0.56 0.46 0.44 0.46 0.53 0.61
0.55 0.56 0.59 0.65 0.65 0.67 0.69 0.70 0.75 0.81 0.88 0.98 1.04 1.15 1.35 1.55 1.61 1.60 1.62 1.64 1.64 1.54 1.31 1.20 0.99 0.96 1.12 1.13 1.13 1.06 1.13 1.18 0.96 0.85 0.70 0.65 0.64 0.57 0.54 0.47 0.42 0.41 0.43
0.47 0.49 0.54 0.58 0.58 0.64 0.66 0.66 0.65 0.67 0.77 0.84 0.85 0.85 0.95 1.18 1.33 1.44 1.50 1.52 1.59 1.60 1.46 1.43 1.32 1.09 1.06 1.13 1.25 1.32 1.25 1.22 1.17 1.13 0.99 0.78 0.70 0.65 0.59 0.54 0.47 0.40 0.39
0.59 0.62 0.61 0.64 0.62 0.64 0.64 0.65 0.68 0.69 0.72 0.76 0.79 0.81 0.86 0.96 1.11 1.19 1.31 1.41 1.49 1.61 1.60 1.43 1.45 1.38 1.20 1.18 1.23 1.31 1.36 1.45 1.33 1.27 1.31 1.14 0.93 0.81 0.74 0.67 0.57 0.48 0.44
0.51 0.54 0.63 0.71 0.79 0.83 0.82 0.78 0.77 0.74 0.70 0.71 0.77 0.84 0.86 0.87 0.98 1.19 1.32 1.39 1.42 1.52 1.64 1.58 1.51 1.48 1.34 1.26 1.26 1.29 1.42 1.51 1.50 1.30 1.23 1.19 1.13 1.01 0.87 0.78 0.69 0.59 0.55
0.44 0.45 0.53 0.62 0.72 0.81 0.86 0.86 0.72 0.61 0.62 0.66 0.67 0.68 0.76 0.83 0.86 1.00 1.16 1.39 1.41 1.51 1.58 1.65 1.57 1.42 1.31 1.23 1.18 1.19 1.28 1.47 1.53 1.51 1.43 1.26 1.14 0.98 0.86 0.82 0.79 0.74 0.67
0.38 0.39 0.44 0.42 0.45 0.50 0.66 0.66 0.54 0.45 0.50 0.60 0.67 0.69 0.69 0.70 0.72 0.76 0.79 1.04 1.24 1.35 1.44 1.46 1.50 1.37 1.25 1.19 1.27 1.27 1.22 1.28 1.39 1.41 1.31 1.38 1.34 1.16 1.01 0.88 0.93 0.96 0.91
0.34 0.36 0.32 0.28 0.30 0.34 0.39 0.38 0.43 0.45 0.48 0.52 0.61 0.70 0.74 0.72 0.78 0.86 0.82 0.86 0.95 1.03 1.14 1.25 1.28 1.22 1.19 1.15 1.23 1.27 1.25 1.20 1.11 1.19 1.20 1.26 1.33 1.23 1.09 0.98 0.98 0.95 0.92
0.29 0.36 0.31 0.29 0.33 0.30 0.32 0.37 0.40 0.42 0.56 0.62 0.61 0.62 0.73 0.79 0.84 0.99 0.98 1.06 0.99 0.89 0.87 0.92 1.05 1.09 1.05 1.15 1.24 1.40 1.46 1.33 1.23 1.25 1.23 1.16 1.13 1.08 1.01 1.01 1.01 0.88 0.83
0.20 0.19 0.23 0.37 0.38 0.34 0.42 0.40 0.35 0.42 0.55 0.62 0.58 0.61 0.73 0.83 0.96 1.06 1.11 1.14 1.04 0.94 0.97 1.05 1.11 1.16 1.17 1.25 1.33 1.39 1.44 1.42 1.33 1.30 1.19 1.07 0.99 0.98 0.99 0.96 0.93 0.94 0.88
0.09 0.10 0.14 0.27 0.34 0.36 0.36 0.28 0.28 0.40 0.53 0.60 0.62 0.63 0.85 0.85 0.93 0.98 1.04 1.16 1.18 1.04 0.96 0.99 1.03 1.05 1.05 1.15 1.35 1.36 1.45 1.51 1.37 1.30 1.20 1.05 1.00 1.10 1.17 1.04 0.90 0.85 0.84